Hourly Data Report for October 25, 2015

All times are specified in Local Standard Time (LST). Add 1 hour to adjust for Daylight Saving Time where and when it is observed.

WINNIPEG A CS
MANITOBA

49°55'00.000" N
97°14'58.000" W
238.70 m
502S001
71849
XWG

Download Data

Hourly Data (October 2015)
Hourly Data Report for October 25, 2015
Temp Definition
°C
Dew Point Temp Definition
°C
Rel Hum Definition
%
Wind Dir Definition
10's deg

Wind Spd Definition
km/h
Visibility Definition
km
Stn Press Definition
kPa
Hmdx Definition


Wind Chill Definition


Weather Definition


TIME
00:00 -1.3 -2.2 93 32 4   99.52   -3 LegendNANA
01:00 -2.1 -2.7 96 32 7   99.56   -5 LegendNANA
02:00 -2.8 -3.2 97 31 7   99.62   -6 LegendNANA
03:00 -3.2 -3.8 96 29 9   99.67   -7 LegendNANA
04:00 -2.1 -2.4 98 32 8   99.73   -5 LegendNANA
05:00 -2.4 -2.7 98 9 3   99.76   -4 LegendNANA
06:00 -2.9 -3.1 98 2 6   99.79   -5 LegendNANA
07:00 -4.4 -4.6 99 2 5   99.82   -7 LegendNANA
08:00 -2.8 -2.8 99 35 2   99.87   -4 LegendNANA
09:00 -0.1 -1.0 94 8 4   99.92   -1 LegendNANA
10:00 2.9 0.1 82 17 2   99.96     LegendNANA
11:00 4.2 0.7 78 21 8   99.97     LegendNANA
12:00 5.2 0.6 72 22 9   99.92     LegendNANA
13:00 6.6 1.3 69 19 9   99.86     LegendNANA
14:00 7.0 0.7 64 20 8   99.82     LegendNANA
15:00 6.5 0.7 66 23 8   99.80     LegendNANA
16:00 6.2 1.3 71 20 11   99.79     LegendNANA
17:00 5.0 1.5 78 18 11   99.76     LegendNANA
18:00 4.5 1.5 81 17 10   99.74     LegendNANA
19:00 2.5 0.0 84 17 10   99.76     LegendNANA
20:00 4.3 1.4 82 18 11   99.78     LegendNANA
21:00 4.8 1.0 77 18 12   99.78     LegendNANA
22:00 3.2 0.3 82 19 13   99.79     LegendNANA
23:00 2.2 -0.3 84 18 11   99.82     LegendNANA

Notes on Data Quality.

Legend

  • E = Estimated
  • M = Missing
  • NA = Not Available
  • ‡ = Partner data that is not subject to review by the National Climate Archives
Date modified: